Regional Weather Roundup
Issued by NWS

Home | Current Version | Previous Version | Text Only | Print | Product List | Glossary Off
Versions: 1 2 3 4 5 6 7 8 9 10 11 12 13 14 15 16 17 18 19 20 21 22 23 24 25 26 27 28 29 30 31 32 33 34 35 36 37 38 39 40 41 42 43 44 45 46 47 48 49 50

000
ASUS43 KLOT 300603
RWRIL

ILLINOIS REGIONAL WEATHER ROUNDUP
NATIONAL WEATHER SERVICE CHICAGO/ROMEOVILLE IL
100 AM CDT SAT APR 30 2016

NOTE: "FAIR" INDICATES FEW OR NO CLOUDS BELOW 12,000 FEET WITH NO
SIGNIFICANT WEATHER AND/OR OBSTRUCTIONS TO VISIBILITY.

* THESE STATIONS ARE NOT UNDER NWS QUALITY CONTROL. THEY ALSO MAY NOT
  REPORT WEATHER SUCH AS PRECIPITATION OR FOG.

ILZ001-002-007-009-015-016-024-300700-
NORTHWEST ILLINOIS

CITY           SKY/WX    TMP DP  RH WIND       PRES   REMARKS
MOLINE         MOCLDY    48  41  76 NE9       30.02F
6HR MIN TEMP:  48; 6HR MAX TEMP:  50;

STERLING*      MOCLDY    46  41  81 E16       30.06F
$$

ILZ003-004-008-010-011-017-018-300700-
NORTH CENTRAL ILLINOIS

CITY           SKY/WX    TMP DP  RH WIND       PRES   REMARKS
ROCKFORD       CLOUDY    44  39  82 E6        30.12R
6HR MIN TEMP:  42; 6HR MAX TEMP:  49;

FREEPORT*      MOCLDY    39  38  94 E6        30.11S FOG
DE KALB*       CLOUDY    43  39  86 E8        30.09F
$$

ILZ005-006-012>014-019>023-300700-
NORTHEAST ILLINOIS

CITY           SKY/WX    TMP DP  RH WIND       PRES   REMARKS
CHICAGO-OHARE  CLOUDY    43  37  79 E8        30.09F
6HR MIN TEMP:  43; 6HR MAX TEMP:  45;

CHICAGO-MIDWAY CLOUDY    45  38  76 NE9       30.09F
6HR MIN TEMP:  45; 6HR MAX TEMP:  47;

AURORA         CLOUDY    45  39  79 NE9       30.09F HAZE
6HR MIN TEMP:  45; 6HR MAX TEMP:  49;

LANSING*       CLOUDY    43  40  88 NE7       30.09F
WAUKEGAN       CLOUDY    42  36  79 NE9       30.11S
6HR MIN TEMP:  41; 6HR MAX TEMP:  43;

DUPAGE AIRPORT CLOUDY    43  36  76 NE8       30.09F
6HR MIN TEMP:  43; 6HR MAX TEMP:  48;

WHEELING       CLOUDY    43  37  79 NE5       30.12S
6HR MIN TEMP:  42; 6HR MAX TEMP:  44;

NORTHERLY ISL    N/A     42  39  89 NE7         N/A
NORTHERLY ISL    N/A     42  39  89 NE7         N/A
$$

LMZ740>746-300700-
SOUTHERN LAKE MICHIGAN

STATION/POSITION SKY/WX   TEMP    WIND        PRES    VSBY  WAVE
                          AIR SEA DIR/SP/G                  HT/PER
                          (F)     (DEG/KT/KT) (MB)    (MI)  (FT/S)
SOUTHERN BUOY              41 40   60/  8/ 10 1020.6          1/ 3
HARRISON CRIB              43      50/  8/  9   N/A
BURNHAM HARBOR             43      30/  4/  9   N/A
CALUMET HARBOR             43      20/  7/  9 1018.8F
BURNS HARBOR               44      50/  8/ 11 1019.6F
MICHIGAN CITY              45      50/  8/  9   N/A
ST. JOSEPH                 48 47                N/A           2/ 4
$$

ILZ025>027-034>036-040-047-049-050-058-095>099-300700-
WEST-CENTRAL ILLINOIS

CITY           SKY/WX    TMP DP  RH WIND       PRES   REMARKS
QUINCY         CLOUDY    51  46  83 E13       29.93S
MACOMB*        CLOUDY    47  46  93 E12       30.00F
$$

ILZ028>032-037-038-041>044-048-051>054-059>061-300700-
CENTRAL ILLINOIS

CITY           SKY/WX    TMP DP  RH WIND       PRES   REMARKS
BLOOMINGTON    PTCLDY    46  44  93 E16       30.02F
DECATUR        CLOUDY    52  47  83 E17       29.98F
PEORIA         CLOUDY    48  42  80 E18G29    30.00F
6HR MIN TEMP:  48; 6HR MAX TEMP:  52;

SPRINGFIELD    MOCLDY    54  48  80 E13G23    29.96F
6HR MIN TEMP:  54; 6HR MAX TEMP:  58;

TAYLORVILLE    NOT AVBL
$$

ILZ033-039-045-046-055>057-062-063-300700-
EAST-CENTRAL ILLINOIS

CITY           SKY/WX    TMP DP  RH WIND       PRES   REMARKS
CHAMPAIGN      MOCLDY    50  46  86 NE16      30.00F FOG
MATTOON        CLOUDY    54  49  83 E10       29.96F
$$

ILZ079-100>102-300700-
SOUTHWEST ILLINOIS

CITY           SKY/WX    TMP DP  RH WIND       PRES   REMARKS
ALTON          HVY RAIN  56  55  96 E10       29.93F
CAHOKIA*       LGT RAIN  59  55  87 E5        29.93R
SPARTA*        CLOUDY    59  55  85 E10       29.92S
$$

ILZ064>066-069>071-074>076-080>082-084>086-088>090-092>094-300700-
SOUTH-CENTRAL ILLINOIS

CITY           SKY/WX    TMP DP  RH WIND       PRES   REMARKS
CARBONDALE     CLOUDY    59  54  83 E6        29.91S
6HR MIN TEMP:  59; 6HR MAX TEMP:  64; 6HR PCP:  0.03;

MT. VERNON     CLOUDY    59  52  77 E8        29.93F
SALEM*         LGT RAIN  60  55  84 E8        29.92F
$$

ILZ067-068-072-073-078-083-087-091-300700-
SOUTHEAST ILLINOIS

CITY           SKY/WX    TMP DP  RH WIND       PRES   REMARKS
LAWRENCEVILLE  CLOUDY    61  53  75 SE6       29.97F
FLORA*         LGT RAIN  62  56  81 NE3       29.95F
ROBINSON*      CLOUDY    57  51  79 E6        29.98F
$$

ABBREVIATIONS USED IN REMARKS
   TC - TEMPERATURE IN CELSIUS
  WCI - WIND CHILL INDEX
   HX - HEAT INDEX
  VSB - VISIBILITY
$$





USA.gov is the U.S. government's official web portal to all federal, state and local government web resources and services.